Simultaneous Nadir Overpasses (SNOs) Predictions

Prediction of SNOs between NOAA-20 and METOP-B Satellite Orbit:

Table of predicted SNOs for the next 14.0 days since TLE Epoch: 12/28/2019
Index Date (NOAA-20) Time (NOAA-20) Lat,Lon (NOAA-20) SZA (NOAA-20 ) Date (METOP-B) Time (METOP-B) Lat,Lon (METOP-B) SZA (METOP-B ) Distance(km) Time Diff (sec)
1 01/03/2020 19:14:31 73.45,-118.38 96.44 01/03/2020 19:15:37 73.44,-115.50 96.30 91.56 66
2 01/03/2020 20:05:14 -73.40, 49.05 83.62 01/03/2020 20:06:21 -73.33, 51.58 83.81 81.11 67
3 01/03/2020 20:55:55 73.15,-143.09 96.11 01/03/2020 20:57:05 73.12,-141.55 96.00 49.96 70
4 01/03/2020 21:46:38 -73.10, 24.33 83.95 01/03/2020 21:47:49 -73.01, 25.54 84.11 40.49 71
5 01/03/2020 22:37:19 72.85,-167.82 95.78 01/03/2020 22:38:33 72.79,-167.58 95.70 10.11 74
6 01/03/2020 23:28:02 -72.80, -0.40 84.29 01/03/2020 23:29:15 -72.79, -0.26 84.32 4.76 73
7 01/04/2020 00:18:47 72.75, 167.01 95.66 01/04/2020 00:19:55 72.77, 167.04 95.67 3.02 68
8 01/04/2020 01:09:31 -72.75, -25.68 84.35 01/04/2020 01:10:37 -72.77, -25.64 84.34 2.25 66
9 01/04/2020 02:00:17 72.75, 141.63 95.66 01/04/2020 02:01:17 72.76, 141.67 95.65 1.19 60
10 01/04/2020 02:51:01 -72.75, -51.06 84.35 01/04/2020 02:51:59 -72.75, -51.02 84.37 1.20 58
11 01/04/2020 03:41:47 72.75, 116.25 95.65 01/04/2020 03:42:39 72.74, 116.29 95.62 2.29 52
12 01/04/2020 04:32:31 -72.76, -76.43 84.35 01/04/2020 04:33:21 -72.73, -76.40 84.39 3.00 50
13 01/04/2020 05:23:16 72.71, 90.98 95.59 01/04/2020 05:24:01 72.72, 90.91 95.60 2.66 45
14 01/04/2020 06:14:00 -72.71,-101.71 84.41 01/04/2020 06:14:43 -72.71,-101.78 84.41 2.37 43
15 01/04/2020 07:04:46 72.71, 65.60 95.59 01/04/2020 07:05:23 72.70, 65.53 95.58 2.62 37
16 01/04/2020 07:55:30 -72.71,-127.09 84.42 01/04/2020 07:56:05 -72.69,-127.16 84.44 2.99 35
17 01/04/2020 08:46:16 72.71, 40.22 95.59 01/04/2020 08:46:44 72.73, 40.25 95.60 2.37 28
18 01/04/2020 09:36:59 -72.71,-152.47 84.42 01/04/2020 09:37:25 -72.72,-152.43 84.42 1.78 26
19 01/04/2020 10:27:45 72.71, 14.84 95.58 01/04/2020 10:28:05 72.71, 14.87 95.57 1.17 20
20 01/04/2020 11:18:29 -72.71,-177.85 84.43 01/04/2020 11:18:47 -72.71,-177.81 84.44 1.54 18
21 01/04/2020 12:09:15 72.72, -10.54 95.58 01/04/2020 12:09:27 72.69, -10.51 95.55 2.96 12
22 01/04/2020 12:59:58 -72.67, 156.88 84.49 01/04/2020 13:00:09 -72.69, 156.81 84.46 3.20 11
23 01/04/2020 13:50:44 72.67, -35.82 95.52 01/04/2020 13:50:49 72.67, -35.89 95.52 2.39 5
24 01/04/2020 14:41:28 -72.67, 131.50 84.49 01/04/2020 14:41:31 -72.67, 131.43 84.49 2.27 3
25 01/04/2020 15:32:14 72.67, -61.20 95.51 01/04/2020 15:32:11 72.65, -61.27 95.50 3.00 3
26 01/04/2020 16:22:58 -72.67, 106.12 84.49 01/04/2020 16:22:52 -72.70, 106.16 84.47 3.35 6
27 01/04/2020 17:13:44 72.67, -86.57 95.51 01/04/2020 17:13:32 72.68, -86.54 95.52 1.77 12
28 01/04/2020 18:04:28 -72.67, 80.74 84.50 01/04/2020 18:04:14 -72.68, 80.78 84.49 1.43 14
29 01/04/2020 18:55:14 72.67,-111.95 95.51 01/04/2020 18:54:54 72.67,-111.92 95.50 1.57 20
30 01/04/2020 19:45:58 -72.68, 55.36 84.50 01/04/2020 19:45:36 -72.66, 55.40 84.52 2.03 22
31 01/04/2020 20:36:43 72.63,-137.23 95.45 01/04/2020 20:36:16 72.65,-137.30 95.47 3.17 27
32 01/04/2020 21:27:27 -72.63, 30.09 84.56 01/04/2020 21:26:58 -72.64, 30.02 84.54 2.74 29
33 01/04/2020 22:18:13 72.63,-162.61 95.44 01/04/2020 22:17:38 72.63,-162.68 95.45 2.30 35
34 01/04/2020 23:08:57 -72.63, 4.71 84.57 01/04/2020 23:08:20 -72.62, 4.64 84.56 2.30 37
35 01/04/2020 23:59:43 72.63, 172.01 95.44 01/04/2020 23:58:59 72.66, 172.05 95.47 3.25 44
36 01/05/2020 00:50:27 -72.63, -20.67 84.57 01/05/2020 00:49:41 -72.65, -20.64 84.54 2.83 46
37 01/05/2020 01:41:13 72.63, 146.63 95.43 01/05/2020 01:40:21 72.64, 146.67 95.45 1.34 52
38 01/05/2020 02:31:57 -72.63, -46.05 84.58 01/05/2020 02:31:03 -72.64, -46.01 84.57 1.31 54
39 01/05/2020 03:22:43 72.64, 121.25 95.43 01/05/2020 03:21:43 72.62, 121.29 95.42 2.17 60
40 01/05/2020 04:13:27 -72.64, -71.43 84.58 01/05/2020 04:12:25 -72.62, -71.39 84.59 2.59 62
41 01/05/2020 05:04:12 72.59, 95.98 95.37 01/05/2020 05:03:05 72.60, 95.91 95.40 2.66 67
42 01/05/2020 05:54:56 -72.59, -96.71 84.64 01/05/2020 05:53:47 -72.60, -96.77 84.62 2.34 69
43 01/05/2020 06:45:42 72.59, 70.60 95.36 01/05/2020 06:44:27 72.58, 70.53 95.37 2.42 75
44 01/05/2020 07:36:24 -72.49,-121.88 84.76 01/05/2020 07:35:10 -72.53,-122.25 84.69 13.10 74
45 01/05/2020 08:27:06 72.29, 45.83 95.03 01/05/2020 08:25:55 72.25, 44.54 95.07 43.76 71
46 01/05/2020 09:17:48 -72.19,-146.66 85.09 01/05/2020 09:16:38 -72.20,-148.23 84.98 53.64 70
47 01/05/2020 10:08:30 71.98, 21.04 94.69 01/05/2020 10:07:22 71.98, 18.67 94.82 81.60 68
48 01/05/2020 10:59:12 -71.88,-171.45 85.42 01/05/2020 10:58:06 -71.88,-174.19 85.28 94.86 66




NCC Satellite Simultaneous Nadir Overpasses (SNOs) Prediction Service
